Regional Weather Roundup
Issued by NWS

Home | Current Version | Previous Version | Text Only | Print | Product List | Glossary On
Versions: 1 2 3 4 5 6 7 8 9 10 11 12 13 14 15 16 17 18 19 20 21 22 23 24 25 26 27 28 29 30 31 32 33 34 35 36 37 38 39 40 41 42 43 44 45 46 47 48 49 50
000
ASUS43 KDTX 251901
RWRMI
MICHIGAN HOURLY REGIONAL WEATHER ROUNDUP
NATIONAL WEATHER SERVICE DETROIT/PONTIAC MI
300 PM EDT SAT OCT 25 2014

NOTE: "FAIR" INDICATES FEW OR NO CLOUDS BELOW 12,000 FEET WITH NO
SIGNIFICANT WEATHER AND/OR OBSTRUCTION TO VISIBILITY.

MIZ047>049-052>055-059>063-066>070-074>076-081>083-252000-
SOUTHEAST LOWER MICHIGAN

CITY           SKY/WX    TMP DP  RH WIND       PRES   REMARKS
ADRIAN         SUNNY     67  48  50 W16G26    29.80F
ALMA           SUNNY     67  24  19 W17G32    29.74F
ANN ARBOR      SUNNY     69  45  41 W17G24    29.75F
BAD AXE        SUNNY     64  42  44 W22G31    29.66F
CARO           MOSUNNY   66  45  46 W10G22    29.68F
DETROIT CITY   SUNNY     67  49  52 W15G22    29.73F
DETROIT        MOSUNNY   66  50  56 SW21      29.75F
FLINT          SUNNY     68  47  46 W17G26    29.73F
GROSSE ILE     SUNNY     66  50  55 W12G22    29.74F
HILLSDALE      SUNNY     67  45  44 W16G25    29.81F
HOWELL         SUNNY     65  45  47 W17G24    29.76F

CITY           SKY/WX    TMP DP  RH WIND       PRES   REMARKS
JACKSON        SUNNY     67  43  41 W20G29    29.79F
LAMBERTVILLE   SUNNY     68  50  52 W16G23    29.79F
LANSING        SUNNY     67  40  37 W21G30    29.78F
LAPEER         MOCLDY    64  43  46 W14G26    29.72F
MASON          SUNNY     66  43  42 W24       29.77F
MONROE         SUNNY     66  48  52 W18G26    29.76F
MT. CLEMENS    MOSUNNY   65  48  53 W14G22    29.71F
PONTIAC        MOSUNNY   64  44  48 W20G30    29.74F
PORT HOPE        N/A     65  39  38 W15G26    29.62F
PORT HURON     PTSUNNY   63  48  59 W9G17     29.71F
TRI CITIES     SUNNY     68  34  28 W25G36    29.70F
TROY           SUNNY     66  47  49 W15G24    29.75F
SAGINAW HB     SUNNY     68  36  30 W20G28    29.69F
$$
MIZ043>046-050>051-056>058-064>065-071>073-077>080-252000-
SOUTHWEST LOWER MICHIGAN

CITY           SKY/WX    TMP DP  RH WIND       PRES   REMARKS
BATTLE CREEK   SUNNY     68  38  33 W22G29    29.83F
BENTON HARBOR  SUNNY     62  48  60 W12G21    29.90F
BIG RAPIDS     SUNNY     63  40  43 W23G30    29.76S
COLDWATER      SUNNY     67  46  46 W17G26    29.84F
FREMONT        FAIR      64  31  29 W18G25    29.81S
HOLLAND        SUNNY     65  44  46 W17G29    29.86F
GRAND RAPIDS   MOSUNNY   66  35  31 W17G25    29.81F
IONIA          FAIR      67  31  26 W23G32    29.78S
KALAMAZOO      SUNNY     67  35  30 W20G32    29.85F
LUDINGTON      SUNNY     59  47  64 W10G16    29.81F
MARSHALL       SUNNY     67  42  39 W22G30    29.81F
MOUNT PLEASANT SUNNY     67  29  24 W23G31    29.71F
MUSKEGON       SUNNY     63  45  51 W15G28    29.84F
SOUTH HAVEN    SUNNY     64  47  54 W18       29.88F
$$
MIZ016>042-252000-
NORTHERN LOWER MICHIGAN

CITY           SKY/WX    TMP DP  RH WIND       PRES   REMARKS
ALPENA         SUNNY     61  36  39 W14G28    29.63R
BEAVER ISLAND  SUNNY     59  43  54 W10       29.70S
BELLAIRE       SUNNY     59  37  43 W15G24    29.72S
CADILLAC       SUNNY     59  37  43 W23G36    29.74R
CHARLEVOIX     SUNNY     58  45  62 W13       29.74S
FRANKFORT      SUNNY     60  44  57 W9        29.76F
GAYLORD        MOSUNNY   56  36  47 W17G30    29.69S
GRAYLING       SUNNY     59  35  40 W17G30    29.71S
HARBOR SPRINGS PTSUNNY   56  46  67 W13G18    29.69S
HOUGHTON LAKE  SUNNY     61  37  41 W16G25    29.70S
MANISTEE       SUNNY     59  39  47 W14       29.80S
OSCODA         SUNNY     67  33  28 W24G32    29.62S
PELLSTON       PTSUNNY   57  37  47 NW18G25   29.68S
TRAVERSE CITY  MOSUNNY   62  35  36 W15G28    29.73S
$$
MIZ007>008-015-252000-
EASTERN UPPER MICHIGAN

CITY           SKY/WX    TMP DP  RH WIND       PRES   REMARKS
KINROSS        CLOUDY    52  37  58 NW22G32   29.64R
MACKINAC ISLAN CLOUDY    56  38  50 W17G29    29.65S
NEWBERRY       CLOUDY    55  38  51 W22G30    29.67S
S. S. MARIE    CLOUDY    52  35  52 NW22G38   29.63R
$$
MIZ004>006-011>014-085-252000-
CENTRAL UPPER MICHIGAN

CITY           SKY/WX    TMP DP  RH WIND       PRES   REMARKS
MANISTIQUE     MOSUNNY   61  36  39 W14G22    29.68S
ESCANABA       SUNNY     63  30  29 NW17G33   29.70S
MENOMINEE      SUNNY     63  28  27 NW10G21   29.75F
SAWYER-GWINN   SUNNY     63  32  31 W18G25    29.71S
$$
MIZ001>003-009>011-084-252000-
WESTERN UPPER MICHIGAN

CITY           SKY/WX    TMP DP  RH WIND       PRES   REMARKS
IRON MOUNTAIN  SUNNY     60  24  25 NW28G36   29.76S
HOUGHTON       SUNNY     53  34  48 W28G43    29.73R
IRONWOOD       SUNNY     55  30  38 W20G30    29.81F
$$

ABBREVIATIONS USED IN REMARKS
   TC - TEMPERATURE IN CELSIUS
  WCI - WIND CHILL INDEX
   HX - HEAT INDEX
  VSB - VISIBILITY




USA.gov is the U.S. government's official web portal to all federal, state and local government web resources and services.